Regional Weather Roundup
Issued by NWS

Home | Current Version | Previous Version | Graphics & Text | Print | Product List | Glossary On
Versions: 1 2 3 4 5 6 7 8 9 10 11 12 13 14 15 16 17 18 19 20 21 22 23 24 25 26 27 28 29 30 31 32 33 34 35 36 37 38 39 40 41 42 43 44 45 46 47 48 49 50
020
ASUS45 KTFX 290010
RWRMT
MONTANA REGIONAL WEATHER ROUNDUP
NATIONAL WEATHER SERVICE GREAT FALLS MT
600 PM MDT SUN AUG 28 2016

NOTE: "FAIR" INDICATES FEW OR NO CLOUDS BELOW 12000 FEET WITH NO
SIGNIFICANT WEATHER AND/OR OBSTRUCTIONS TO VISIBILITY.

MTZ001>007-043-290100-
WEST OF THE DIVIDE

CITY           SKY/WX    TMP DP  RH WIND       PRES   REMARKS
KALISPELL      MOSUNNY   76  38  25 SW12      30.07R
MISSOULA       MOSUNNY   84  29  13 NW10G23   30.07R
BUTTE          CLOUDY    76  36  23 NE8       30.18R
MULLAN PASS    MOSUNNY   63  32  31 SW8       30.25R
DEER LODGE       N/A     79  28  15 NW16      30.15S
EUREKA           N/A     79  37  22 SW9       30.05S
HAMILTON         N/A     81  39  22 N6        30.09S
LIBBY            N/A     77  37  24 S6        30.07S
PLAINS           N/A     82  44  26 W6        30.07R
RONAN            N/A     80  38  22 CALM      30.13S
$$

MTZ008-052>055-290100-
SOUTHWEST MONTANA

CITY           SKY/WX    TMP DP  RH WIND       PRES   REMARKS
BOZEMAN        MOSUNNY   82  41  23 NW9       30.10R
DILLON         SUNNY     81  38  21 W12       30.12S
W YELLOWSTONE  CLOUDY    77  27  15 S13G23    30.25S
ENNIS          SUNNY     84  30  14 NW17      30.19S
THREE FORKS      N/A     83  83 100 NW10      30.07R HX  99
TWIN BRIDGES     N/A     84  39  20 SW7       30.10R
$$

MTZ009-010-012-014-046-048-049-054-290100-
EAST SLOPES AND CENTRAL MONTANA

CITY           SKY/WX    TMP DP  RH WIND       PRES   REMARKS
CUT BANK       SUNNY     68  42  38 E8        30.15R
GREAT FALLS    MOSUNNY   75  44  33 N13       30.10R
MALMSTROM AFB  PTSUNNY   73  45  35 MISG      30.10R
HELENA         MOSUNNY   83  30  14 SW10      30.08R
CHOTEAU          N/A     70  45  40 NE9       30.17R
CONRAD           N/A     71  50  47 S8        30.16R
$$

MTZ011-013-016-021-045-047-050-051-290100-
NORTH CENTRAL MONTANA

CITY           SKY/WX    TMP DP  RH WIND       PRES   REMARKS
HAVRE          SUNNY     74  47  38 N9        30.10R
LEWISTOWN      PTSUNNY   76  45  33 N9        30.12R
N BAR RANCH      N/A     75  41  29 N12G18    30.15R
CHINOOK          N/A     75  46  35 NW10      30.08R
$$

MTZ017>020-022>027-061-062-290100-
NORTHEAST MONTANA

CITY           SKY/WX    TMP DP  RH WIND       PRES   REMARKS
GLASGOW        PTSUNNY   83  45  26 N10       30.02R
JORDAN           N/A     84  44  24 N14G22    30.02R
SIDNEY         SUNNY     85  49  28 N13       29.98R
WOLF POINT     PTSUNNY   86  50  28 N12       30.00R
POPLAR           N/A     82  50  32 N12       30.00R
SCOBEY           N/A     78  47  33 N12       30.04R
$$

MTZ028>42-056>058-290100-
SOUTHCENTRAL AND SOUTHEAST MONTANA

CITY           SKY/WX    TMP DP  RH WIND       PRES   REMARKS
BAKER          SUNNY     88  40  18 NW13      30.00R
BILLINGS       CLOUDY    86  32  14 CALM      30.02R
LIVINGSTON     MOSUNNY   86  34  15 W14       30.08R
MILES CITY     SUNNY     91  39  16 N8        29.97R
EKALAKA          N/A     86  40  19 W3        30.01R
FORSYTH          N/A     90  39  17 N5        29.98R
LAUREL           N/A     85  42  22 CALM      30.02R
ROUNDUP          N/A     83  41  22 N13       29.97R
$$

REGIONAL REPORTS...DAKOTAS

CITY           SKY/WX    TMP DP  RH WIND       PRES   REMARKS
WILLISTON      SUNNY     84  50  30 N16       29.99R
MINOT          MOSUNNY   86  57  37 N13       29.90R
DICKINSON      SUNNY     89  37  16 NW15      29.95R
CROSBY           N/A     77  48  36 N13       30.02R
WATFORD CITY     N/A     84  45  24 N10       29.98R
BISMARCK       SUNNY     87  63  44 SE7       29.90S
GRAND FORKS    MOSUNNY   82  70  66 SE9       29.91F
FARGO          SUNNY     87  72  60 S14       29.91F HX  93
BUFFALO SD       N/A     90  49  24 N9        29.92R
RAPID CITY     SUNNY     88  52  29 NE8       29.98R
$$

REGIONAL REPORTS...WYOMING/IDAHO/WASHINGTON

CITY           SKY/WX    TMP DP  RH WIND       PRES   REMARKS
GILLETTE       SUNNY     86  30  13 N10       30.06R
SHERIDAN       SUNNY     87  37  17 N7        30.06R
BUFFALO WY     SUNNY     86  29  12 N12       30.12R
CODY           CLOUDY    81  30  16 E8        30.12R
YELLOWSTONE LA   N/A     69  29  22 VRB3      30.37R
IDAHO FALLS    SUNNY     86  35  16 SW14      30.13S
SALMON         MOSUNNY   88  37  16 N8        30.04F
BOISE          SUNNY     90  40  17 N10       30.05F
SPOKANE        PTSUNNY   80  32  17 W12       30.06F
$$

REGIONAL REPORTS...ALBERTA

CITY           SKY/WX    TMP DP  RH WIND       PRES   REMARKS
EDMONTON       CLOUDY    55  37  50 N8        30.13R
CALGARY        PTSUNNY   55  43  62 E6        30.16R
LETHBRIDGE     PTSUNNY   63  43  48 NE6       30.16R
MEDICINE HAT   MOSUNNY   63  46  55 NE6       30.14R
WATERTON GATE    N/A     63  43  48 NE5         N/A
MILK RIVER       N/A     63  41  45 NE8         N/A
ONEFOUR          N/A     64  43  45 N8          N/A
$$

REGIONAL REPORTS...SASKATCHEWAN

CITY           SKY/WX    TMP DP  RH WIND       PRES   REMARKS
SWIFT CURRENT  SUNNY     64  43  45 NW18G25   30.11R
REGINA         PTSUNNY   70  50  49 NW18G24   30.03R
SASKATOON      CLOUDY    57  45  62 NW22G28   30.06R
CYPRESS HILLS    N/A     55  41  58 N8          N/A
VAL MARIE        N/A     72  46  40 N16         N/A
ROCKGLEN         N/A     70  48  46 N10         N/A
$$




USA.gov is the U.S. government's official web portal to all federal, state and local government web resources and services.